Location: Izdebno
(52.6670°N, 16.2170°E)
Time: 03:10:54
(UTC+02:00)

Transit 2A - Pass Details

Date: 02 March 2024
Orbit: 596 x 956 km, 66.7° (Epoch: 21 April)

Event Time Altitude Azimuth Distance (km) Brightness Sun altitude
Rises 04:16:04 0° 308° (NW) 3,049 - -22.2°
Reaches altitude 10° 04:19:17 10° 284° (WNW) 2,199 - -21.8°
Maximum altitude 04:21:58 15° 252° (WSW) 1,955 - -21.4°
Drops below altitude 10° 04:24:46 10° 219° (SW) 2,318 - -21.0°
Sets 04:28:20 0° 197° (SSW) 3,326 - -20.4°
